Regional Weather Roundup
Issued by NWS

Home | Current Version | Previous Version | Graphics & Text | Print | Product List | Glossary Off
Versions: 1 2 3 4 5 6 7 8 9 10 11 12 13 14 15 16 17 18 19 20 21 22 23 24 25 26 27 28 29 30 31 32 33 34 35 36 37 38 39 40 41 42 43 44 45 46 47 48 49 50

000
ASUS43 KDMX 220506
RWRIA

WEATHER ROUNDUP FOR IOWA
NATIONAL WEATHER SERVICE DES MOINES IA
1200 AM CDT SAT JUL 22 2017

NOTE: "FAIR" INDICATES FEW OR NO CLOUDS BELOW 12,000 FEET WITH NO
SIGNIFICANT WEATHER AND/OR OBSTRUCTIONS TO VISIBILITY.

* - THESE STATIONS ARE NOT NWS STATIONS...THUS NOT UNDER NWS
QUALITY CONTROL.  THEY ALSO DO NOT REPORT WEATHER SUCH
AS PRECIPITATION OR FOG.

IAZ001>003-012>014-020>022-031>034-043>046-220600-
   NORTHWEST IOWA

CITY           SKY/WX    TMP DP  RH WIND       PRES   REMARKS
CARROLL *      CLOUDY    77  77 100 N8        29.73S FOG
CHEROKEE *     CLOUDY    77  76  97 NE8       29.77S
DENISON *      CLOUDY    79  79 100 N7        29.75S FOG     HX  83
ORANGE CITY *  CLOUDY    75  73  94 E7        29.78S
SHELDON *      CLOUDY    73  73 100 NE8       29.78S
SIOUX CITY     CLOUDY    79  78  97 NE5       29.74R HX  83
SPENCER        CLOUDY    75  72  90 NE8       29.79F
STORM LAKE *   CLOUDY    75  75 100 NE12      29.78S FOG
$$

IAZ055>058-069>071-079>083-090>094-220600-
   SOUTHWEST IOWA

CITY           SKY/WX    TMP DP  RH WIND       PRES   REMARKS
ATLANTIC *     CLOUDY    82  73  74 SW8G14    29.73S HX  88
AUDUBON *      CLOUDY    81  75  83 CALM      29.75S HX  86
CLARINDA *       N/A     84  75  74 S12G20    29.76S HX  92
COUNCIL BLFS * CLOUDY    86  73  66 S8        29.73S HX  93
CRESTON *      CLEAR     84  73  70 S17       29.76F HX  91
HARLAN  *      CLOUDY    79  79 100 CALM      29.77R HX  83
LAMONI         CLEAR     84  75  74 S15       29.78F HX  92
RED OAK *      CLEAR     82  73  74 S13       29.73S HX  88
SHENANDOAH *   CLEAR     84  73  70 S10G20    29.74R HX  91
$$

IAZ047>049-059>061-072>074-084-220600-
   CENTRAL IOWA

CITY           SKY/WX    TMP DP  RH WIND       PRES   REMARKS
AMES           CLOUDY    75  75 100 CALM      29.71F FOG
ANKENY *       CLOUDY    86  75  70 S8        29.72F HX  95
BOONE *        CLOUDY    75  75 100 SE5       29.72F FOG
CHARITON *     CLEAR     86  73  66 S17G24    29.76S HX  93
DES MOINES     CLEAR     88  75  65 S14       29.71F HX  97
GRINNELL*      CLEAR     82  74  77 S9        29.74F HX  89
KNOXVILLE *    CLEAR     86  73  66 SW14      29.72F HX  93
MARSHALLTOWN   CLEAR     73  73 100 NE5       29.71F
NEWTON *       CLEAR     84  75  74 SW12      29.73F HX  92
PELLA *        CLEAR     86  73  65 S9G17     29.74F HX  92
$$

IAZ004>006-015-016-023>025-035-036-220600-
   NORTH CENTRAL IOWA

CITY           SKY/WX    TMP DP  RH WIND       PRES   REMARKS
ALGONA *       CLOUDY    73  73 100 NE7       29.78F
CLARION *      MOCLDY    72  72 100 NE9       29.76F
ESTHERVILLE    CLOUDY    72  72 100 NE9       29.79F
FORT DODGE *   CLOUDY    73  70  88 NE6       29.76F
MASON CITY     LGT RAIN  70  69  97 E7        29.80F
FOREST CITY *  LGT RAIN  72  70  94 NE8       29.79F
WEBSTER CITY * CLOUDY    73  72  94 NE5       29.72F
IOWA FALLS *     N/A     72  70  95 NE3       29.76F
$$

IAZ007>011-017>019-026>030-037>042-050>054-066-220600-
   NORTHEAST IOWA

CITY           SKY/WX    TMP DP  RH WIND       PRES   REMARKS
CEDAR RAPIDS   CLOUDY    73  73 100 S6        29.72F
CHARLES CITY * HVY RAIN  72  72 100 E15G24    29.77F VSB 1/4
CLINTON *      MOCLDY    72  71  97 E9        29.79F
DECORAH *      CLOUDY    70  70 100 E5        29.81S
DUBUQUE        TSTM      68  68 100 N16G31    29.89R VSB 3/4
MONTICELLO *   CLOUDY    73  72  94 E17G32    29.79R
OELWEIN *      CLOUDY    72  70  94 N15G22    29.79R
WATERLOO       PTCLDY    73  70  90 E8        29.75R
$$

IAZ064-065-067-068-078-220600-
   EAST CENTRAL IOWA

CITY           SKY/WX    TMP DP  RH WIND       PRES   REMARKS
DAVENPORT      PTCLDY    75  71  87 SE9       29.80F
IOWA CITY      MOCLDY    78  74  87 CALM      29.75F HX  81
MT. PLEASANT * CLEAR     82  71  68 S12       29.76F HX  86
MUSCATINE *    CLEAR     75  73  94 CALM      29.75F
QUAD CITIES    CLEAR     76  72  87 E9        29.78F
$$

IAZ062-063-075>077-085>089-095>099-220600-
   SOUTHEAST IOWA

CITY           SKY/WX    TMP DP  RH WIND       PRES   REMARKS
BURLINGTON     CLEAR     82  74  76 SW10      29.77F HX  88
FAIRFIELD *    CLEAR     86  72  62 SW16G23   29.75F HX  92
FORT MADISON * CLEAR     84  73  70 SW12      29.79F HX  91
KEOKUK *       CLEAR     84  73  70 S10       29.78F HX  91
OSKALOOSA *      N/A     85  73  67 SW16      29.75F HX  92
CENTERVILLE *    N/A     84  72  65 S16       29.80F HX  89
OTTUMWA        CLEAR     87  73  62 SW14G23   29.75F HX  94
WASHINGTON *   CLEAR     84  73  70 SW10G18   29.75F HX  91
$$

ABBREVIATIONS USED IN REMARKS
   TC - TEMPERATURES IN CELSIUS
  WCI - WIND CHILL INDEX
   HX - HEAT INDEX
  VSB - VISIBILITY
$$





USA.gov is the U.S. government's official web portal to all federal, state and local government web resources and services.